This demonstration page uses our WeatherBlox Daily Observations layout. Learn more.

Left ArrowRight Arrow

44.31136, -96.79839

Hourly Observations for June 3, 2019

Temp ( °F °C ) Dew Point ( °F °C ) Humidity (%) Winds ( mph kmh ) Pressure ( in mb ) Visibility ( mi km ) Precip ( " mm )
12:56 am 00:56 Mostly Cloudy 60 15.6 49 9.4 67 67 SE 9 15 30.00 1016 10 16 0.00 0.00
1:56 am 01:56 Cloudy 62 16.7 48 8.9 60 60 SSE 10 17 29.99 1016 10 16 0.00 0.00
2:56 am 02:56 Cloudy 61 16.1 49 9.4 65 65 SE 9 15 29.97 1015 10 16 0.00 0.00
3:56 am 03:56 Mostly Cloudy 61 16.1 48 8.9 63 63 SSE 9 15 29.97 1015 10 16 0.00 0.00
4:56 am 04:56 Mostly Cloudy 61 16.1 48 8.9 63 63 SSE 9 15 29.97 1015 10 16 0.00 0.00
5:56 am 05:56 Mostly Sunny 59 15 49 9.4 69 69 SE 10 17 29.98 1015 10 16 0.00 0.00
6:56 am 06:56 Mostly Sunny 59 15 49 9.4 69 69 SSE 12 19 29.98 1015 10 16 0.00 0.00
7:56 am 07:56 Sunny 62 16.7 49 9.4 62 62 SSE 10 17 29.98 1015 10 16 0.00 0.00
8:56 am 08:56 Mostly Cloudy 64 17.8 51 10.6 63 63 SSE 15 24 29.98 1015 10 16 0.00 0.00
9:56 am 09:56 Sunny 67 19.4 53 11.7 61 61 S 16 26 29.97 1015 10 16 0.00 0.00
10:56 am 10:56 Partly Cloudy 71 21.7 55 12.8 57 57 SSW 17 28 29.97 1015 10 16 0.00 0.00
11:56 am 11:56 Sunny 72 22.2 58 14.4 61 61 S 15 24 29.96 1015 10 16 0.00 0.00
12:56 pm 12:56 Sunny 74 23.3 59 15 60 60 SSW 12 19 29.94 1014 10 16 0.00 0.00
1:56 pm 13:56 Sunny 75 23.9 60 15.6 60 60 SSW 16 26 29.93 1013 10 16 0.00 0.00
2:56 pm 14:56 Mostly Sunny 76 24.4 61 16.1 60 60 S 16 26 29.91 1013 10 16 0.00 0.00
3:56 pm 15:56 Partly Cloudy 77 25 61 16.1 58 58 S 15 24 29.90 1012 9 14 0.00 0.00
4:56 pm 16:56 Sunny 77 25 60 15.6 56 56 SSE 15 24 29.88 1012 10 16 0.00 0.00
5:56 pm 17:56 Mostly Sunny 76 24.4 62 16.7 62 62 S 14 22 29.88 1012 10 16 0.00 0.00
6:56 pm 18:56 Mostly Sunny 75 23.9 62 16.7 64 64 S 15 24 29.86 1011 10 16 0.00 0.00
7:56 pm 19:56 Mostly Sunny 72 22.2 63 17.2 73 73 S 13 20 29.86 1011 10 16 0.00 0.00
8:56 pm 20:56 Mostly Sunny 70 21.1 63 17.2 79 79 S 13 20 29.85 1011 10 16 0.00 0.00
9:56 pm 21:56 Clear 68 20 63 17.2 84 84 SSE 12 19 29.86 1011 10 16 0.00 0.00
10:56 pm 22:56 Clear 67 19.4 63 17.2 87 87 S 12 19 29.88 1012 10 16 0.00 0.00
11:56 pm 23:56 Clear 66 18.9 62 16.7 87 87 S 13 20 29.87 1012 10 16 0.00 0.00

Powered by AerisWeather